Weather in Tangail

Bangladesh     24°15′12″N   89°54′56″E
temp.,
°C
wind,
m/s
gust,
m/s
humid.,
%
clouds,
%
prec.,
mm/h
press.,
hPa
HPBL,
m
7 may, fri
fri700:00+26s3574100 1.5 1011162
03:00+25ene3583100 0.1 1010136
06:00+25ese3484100 0.2 1011165
09:00+30e326395 0.1 1012637
12:00+35w34410 0.1 10102047
15:00+37w343293 0.1 10072971
18:00+32ene114728 0.5 100642
21:00+24ssw6988100 6.2 1010238
8 may, sat
sat800:00+26wsw497722 6.3 1009221
03:00+25e33827 0.0 100966
06:00+25ese2481100 0.0 1010163
09:00+30s33580 0.0 10121084
12:00+34wsw33410 0.0 10092036
15:00+36wnw33358 0.0 10062315
18:00+35ene22380 0.0 100428
21:00+29s47552 0.3 1007199
9 may, sun
sun900:00+28ssw24680 0.8 1007140
03:00+28s227380 0.2 100736
06:00+26ese34792 0.9 1008121
09:00+32s33577 1.4 1009938
12:00+37ssw553889 1.8 10072751
15:00+37sw573127 0.1 10022102
18:00+26ene5867100 0.6 1003408
21:00+23ese5109399 10.4 1007368
10 may, mon
mon1000:00+24se479040 15.1 1007302
03:00+23sse25917 2.2 1006197
06:00+23ene348999 5.4 1007221
09:00+28se56710 0.1 1008545
12:00+34sse344996 0.1 10061976
15:00+34e554773 0.2 1002952
18:00+27se6107992 10.8 1000406
21:00+23sse7148186 3.9 1004413
11 may, tue
tue1100:00+25ssw2978100 4.1 1005341
03:00+24ese468897 1.8 1004192
06:00+23ene479078 2.4 1005228
09:00+27ese457168 0.4 1007659
12:00+32se455540 0.5 10051435
15:00+34s344988 0.1 10011601
18:00+26se71279100 1.1 999257
21:00+23sse81675100 11.0 1002298